Miscellaneous Local Product
Issued by NWS Hastings, NE

Home | Current Version | Previous Version | Graphics & Text | Print | Product List | Glossary On
Versions: 1 2 3 4 5 6 7 8 9 10 11 12 13 14 15 16 17 18 19 20 21 22 23 24 25 26 27 28 29 30 31 32 33 34 35 36 37 38 39 40 41 42 43 44 45 46 47 48 49 50
000
AXUS43 KGID 240702
MISGRI

GID CWA HOURLY WEATHER ROUNDUP
NATIONAL WEATHER SERVICE HASTINGS NE
200 AM CDT FRI OCT 24 2014

NOTE: "FAIR" INDICATES FEW OR NO CLOUDS BELOW 12,000 FEET WITH NO
SIGNIFICANT WEATHER AND/OR OBSTRUCTIONS TO VISIBILITY.

...SOUTH CENTRAL NEBRASKA...

CITY           SKY/WX    TMP DP  RH WIND       PRES   REMARKS
GRAND ISLAND   FAIR      59  55  87 S13       29.98F
HASTINGS       CLEAR     57  54  89 S8        29.99F FOG
KEARNEY        CLEAR     54  52  94 S7        30.00S
ORD            PTCLDY    55  52  89 CALM      29.94S
YORK           CLEAR     57  55  94 S9        29.99S
AURORA         CLEAR     58  57  97 S10       29.98F
LEXINGTON      PTCLDY    59  56  89 SW10      29.99S
HOLDREGE       FAIR      55  54  94 SW10      30.00S
HEBRON         CLEAR     61  57  87 S7        30.00F

...NEBRASKA PANHANDLE...

CITY           SKY/WX    TMP DP  RH WIND       PRES   REMARKS
CHADRON        MOCLDY    40  34  79 CALM      29.94F
ALLIANCE       PTCLDY    40  32  73 CALM      29.99F
SCOTTSBLUFF    MOCLDY    46  36  68 N7        30.01F
SIDNEY         PTCLDY    49  34  56 W8        30.06R

...WESTERN AND NORTH CENTRAL NEBRASKA...

CITY           SKY/WX    TMP DP  RH WIND       PRES   REMARKS
VALENTINE      MOCLDY    42  36  79 SW8       29.92S
AINSWORTH      PTCLDY    50  40  68 W6        29.92R
ONEILL         CLEAR     54  53  95 SW9       29.90F
BROKEN BOW     PTCLDY    56  52  86 CALM      29.96S
IMPERIAL       MOCLDY    51  40  65 SW10      30.02S
NORTH PLATTE   PTCLDY    49  47  93 NW3       29.99S
MCCOOK         PTCLDY    56  53  90 SW5       30.02S FOG

...EASTERN NEBRASKA...

CITY           SKY/WX    TMP DP  RH WIND       PRES   REMARKS
NORFOLK        PTCLDY    57  54  89 S13       29.94S
SO SIOUX CITY  PTCLDY    50  47  89 SE7       29.94F
TEKAMAH        PTCLDY    49  46  90 SE7       29.97F
COLUMBUS       PTCLDY    57  52  82 S9        29.98S
ALBION         PTCLDY    54  51  91 SE6       29.96S FOG
OMAHA EPPLEY   PTCLDY    55  50  83 SE10      30.00S
OFFUTT AFB     PTCLDY    53  53 100 E3        30.00S
MILLARD        CLEAR     53  50  88 CALM      30.00S
LINCOLN        CLEAR     54  51  90 S6        30.00F
NEBRASKA CITY  PTCLDY    56  56 100 SW8       30.01S FOG
BEATRICE       CLEAR     58  56  94 S8        30.02S
FALLS CITY     MOCLDY    59  58  96 S10       30.02F FOG

...NORTHERN KANSAS...

CITY           SKY/WX    TMP DP  RH WIND       PRES   REMARKS
GOODLAND       PTCLDY    57  51  80 SW16      30.08R
HILL CITY      CLEAR     59  55  87 W7        30.04R
NORTON         SUNNY     50  48  93 S6        30.01F FOG
PHILLIPSBURG     N/A     50  50 100 CALM      30.02S FOG
SMITH CENTER   CLEAR     50  50 100 SE6       30.03S FOG
BELOIT         CLEAR     57  57 100 S6        30.02S
HAYS           CLEAR     57  52  82 S6        30.05S
RUSSELL        CLEAR     60  57  89 S14       30.03S
CONCORDIA      CLEAR     61  59  93 S9        30.02F FOG
SALINA         CLEAR     59  57  93 S7        30.05S FOG
TOPEKA         MOCLDY    59  58  96 S8        30.07S FOG



USA.gov is the U.S. government's official web portal to all federal, state and local government web resources and services.